www.pogodaiklimat.ru

Погода и климат >> Архив погоды >> Аргентина >> Buenos Aires Aeropuerto


АРХИВ ПОГОДЫ в Buenos Aires Aeropuerto

Время (UTC), дата Ветер
(напр.,м/с)
 
Видим.   Явления Облачность Т
(С)
Тd
(С)
f
(%)
Тe
(С)
Тes
(С)
Комфортность P
(гПа)
Po
(гПа)
Тmin
(С)
Tmax
(С)
R
(мм)
R24
(мм)
S
(см)
03 15.10 СЗ 4 10 км ясно +15.8 +9.1 64 +15 +15 по сезону 1020.3 1019.6
06 15.10 штиль 0 10 км ясно +16.2 +8.9 62 +16 +16 по сезону 1020.7 1020.0
09 15.10 СЗ 1 10 км ясно +13.9 +9.2 73 +14 +14 по сезону 1021.0 1020.4
12 15.10 С 4 10 км ясно +16.8 +10.1 65 +16 +21 по сезону 1022.2 1021.6 +13.5 +18.5
15 15.10 СВ 4 10 км ясно +19.1 +13.0 68 +20 +33 опасность
простуды
1021.8 1021.2
18 15.10 СВ 4 10 км ясно +20.5 +13.6 65 +23 +33 комфорт 1020.0 1019.3
21 15.10 В 3 10 км ясно +21.3 +11.1 52 +23 +25 комфорт 1018.2 1017.6
00 16.10 В 5 10 км ясно +19.7 +12.9 65 +21 +21 комфорт 1018.6 1018.0 +16.8 +23.0
03 16.10 СВ 3 10 км ясно +18.9 +15.9 83 +20 +20 тепло 1019.0 1018.7
06 16.10 С 5 10 км ясно +19.1 +12.8 67 +20 +20 тепло 1018.0 1017.3
09 16.10 С 5 10 км ясно +18.2 +11.7 66 +18 +18 тепло 1017.2 1016.5
12 16.10 С 5 10 км ясно +19.2 +13.5 70 +20 +24 тепло 1017.5 1016.8 +18.0 +19.9
15 16.10 В 3 10 км 1/0
[Ac trans]
+21.4 +13.9 62 +24 +38 комфорт 1015.4 1014.6
18 16.10 В 3 10 км 4/0
[Ac cast Cs]
+24.2 +13.3 51 +26 +36 жарко 1012.1 1011.4
21 16.10 В 4 10 км 5/0
[Ac cast Cs]
+23.6 +16.1 63 +27 +28 жарко 1010.3 1009.6
00 17.10 В 2 10 км 6/0
[Ac cast]
+24.2 +15.3 58 +27 +27 жарко 1011.1 1010.4 +19.2 +25.6
03 17.10 СВ 3 10 км 3/0
[Ac trans]
+21.4 +17.2 77 +25 +25 комфорт 1011.1 1010.4
06 17.10 С 2 10 км 4/0
[Cs]
+20.2 +17.3 83 +24 +24 комфорт 1010.6 1009.8
09 17.10 С 2 10 км 6/0
[Ac und Cs]
+19.5 +17.2 87 +22 +22 комфорт 1011.6 1010.9
12 17.10 СВ 3 10 км 9/0
[Ac und Cs]
+20.5 +17.6 83 +24 +28 комфорт 1013.5 1012.8 +19.5 +25.0
15 17.10 СВ 4 10 км 10/0
[Ac As Cs]
+20.2 +18.1 88 +24 +31 комфорт 1013.2 1012.5
18 17.10 С 4 10 км 10/4 300 м
[Sc Ac cast Cs]
+20.7 +19.1 91 +25 +28 комфорт 1011.1 1010.4
21 17.10 СЗ 3 10 км 8/0
[Ac cast Cs]
+21.3 +18.3 83 +26 +27 душно 1009.1 1008.4
00 18.10 С 3 10 км 4/4 600 м
[Sc]
+20.0 +18.3 90 +24 +24 комфорт 1011.6 1010.9 +20.0 +24.5
03 18.10 штиль 0 10 км ясно +19.1 +17.6 91 +21 +21 комфорт 1011.8 1011.0
06 18.10 штиль 0 7000 м дымка 4/0
[Ci sp]
+18.7 +17.9 95 +20 +20 тепло 1010.1 1009.4
09 18.10 В 3 300 м туман 10/10 60 м
[St]
+18.6 +18.3 98 +20 +20 тепло 1009.7 1009.0
12 18.10 В 3 5000 м дымка {туман} 10/10 90 м
[St]
+18.2 +18.0 99 +19 +19 тепло 1008.8 1008.1 +17.7 +20.5
15 18.10 ЮВ 4 10 км 10/3 1200 м
[St Ac As]
+20.1 +18.0 88 +23 +26 комфорт 1007.5 1006.8
18 18.10 В 6 10 км 9/3 1200 м
[Sc Ac As]
+21.1 +18.6 86 +25 +27 комфорт 1004.8 1004.1
21 18.10 СВ 2 10 км 9/0
[Ac As]
+20.9 +19.3 91 +26 +27 душно 1002.3 1001.6
00 19.10 Ю 7 5000 м гроза, ливневой дождь 10/6 450 м
[Cb cap As op]
+16.8 +15.1 90 +16 +16 по сезону 1009.5 1008.8 +16.8 +21.6 7
03 19.10 ЮЗ 3 10 км {гроза} 10/0
[Ac As Cs]
+17.4 +14.1 81 +17 +17 по сезону 1008.1 1007.4
06 19.10 Ю 4 10 км в посл. час дождь {гроза} 10/8 330 м
[St As op]
+16.5 +14.8 90 +16 +16 по сезону 1012.0 1011.3 2
09 19.10 Ю 3 10 км 8/4 500 м
[St Cs]
+13.5 +9.0 74 +13 +13 прохладно 1013.7 1013.0
12 19.10 Ю 3 10 км 5/0
[Cs]
+14.2 +5.9 57 +13 +18 прохладно 1017.3 1016.6 +12.5 +17.8 9
15 19.10 Ю 3 10 км ясно +17.8 +2.7 36 +18 +33 опасность
простуды
1019.1 1018.4
18 19.10 В 3 10 км ясно +19.6 +5.3 39 +21 +34 комфорт 1017.7 1017.0
21 19.10 СВ 3 10 км ясно +18.1 +6.3 46 +18 +20 по сезону 1016.9 1016.2
00 20.10 ЮВ 4 10 км ясно +17.1 +5.7 47 +17 +17 по сезону 1016.9 1016.2 +14.2 +20.5
03 20.10 В 6 10 км ясно +15.8 +10.2 69 +14 +14 прохладно 1016.6 1016.0
06 20.10 СВ 7 10 км 3/0
[Cs]
+14.3 +7.7 64 +12 +12 прохладно 1016.0 1015.3
09 20.10 С 7 10 км 4/0
[Ac und Cs]
+13.8 +8.7 71 +12 +12 прохладно 1015.7 1015.0
12 20.10 С 7 10 км 1/0
[Ci fib]
+15.2 +10.7 74 +13 +15 прохладно 1014.5 1013.8 +13.2 +17.1
15 20.10 С 5 10 км 4/0
[Ac cast Ci fib]
+19.4 +13.5 69 +21 +28 комфорт 1013.0 1012.2
18 20.10 С 5 10 км 5/0
[Ac cast Ci fib]
+21.6 +14.2 63 +25 +30 комфорт 1009.8 1009.0
21 20.10 В 3 10 км 10/0
[Ac As Cs]
+21.0 +13.4 62 +24 +25 комфорт 1009.3 1008.6
00 21.10 В 2 10 км 10/0
[Ac As]
+20.2 +14.8 71 +23 +23 комфорт 1010.5 1009.8 +15.2 +22.6
03 21.10 В 5 10 км 10/0
[Ac As]
+19.0 +16.4 85 +20 +20 тепло 1010.7 1010.0
06 21.10 ЮЗ 1 10 км 4/0
[Cs]
+18.2 +16.3 89 +20 +20 тепло 1010.4 1009.7
09 21.10 Ю 5 9000 м слабая морось 10/10 360 м
[St]
+15.2 +12.7 85 +14 +14 прохладно 1012.4 1011.7
12 21.10 Ю 4 10 км {морось} 4/3 600 м
[Sc Ac As]
+15.0 +8.3 64 +14 +17 прохладно 1015.6 1014.9 +14.0 +20.2 0.0
15 21.10 Ю 4 10 км 5/4 900 м
[Sc Cs]
+18.2 +5.6 44 +18 +25 по сезону 1017.4 1016.8
18 21.10 Ю 4 10 км 4/4 1200 м
[Sc]
+18.8 +4.3 38 +19 +25 по сезону 1018.0 1017.3
21 21.10 Ю 4 10 км 3/3 1500 м
[Cu hum]
+18.4 +3.1 36 +18 +19 по сезону 1018.6 1018.0

 

Местоположение метеостанции Buenos Aires Aeropuerto (Аргентина): широта -34.56 долгота -58.41 высота над уровнем моря 6 м.

В архиве по умолчанию представлена погода в Buenos Aires Aeropuerto за последнюю неделю. Архивные данные за месяц целиком и за предыдущие месяцы, начиная с января 2011 года, Вы можете получить, выбрав интересующий диапазон дат из раскрывающегося списка и нажав кнопку "Ввод!".

Внимание! Время в таблицах - всемирное. Для получения местного времени необходимо прибавить поправку, которая в Buenos Aires Aeropuerto равна -3 ч.

Смотрите также архив погоды в соседних городах и на ближайших метеорологических станциях:

Погода в Buenos Aires (Аргентина) (7 км)
Погода в Ezeiza (Аргентина) (30 км)
Погода в Colonia (Уругвай) (55 км)
Погода в La Plata (Аргентина) (64 км)
Погода в Mercedes (Уругвай) (149 км)
Погода в Gualeguaychu (Аргентина) (174 км)
Погода в Las Flores (Аргентина) (179 км)
Погода в Melilla (Уругвай) (199 км)
Погода в Prado (Уругвай) (205 км)
Погода в Dolores (Аргентина) (206 км)

Пояснения к столбцам:

Ветер - указаны скорость ветра в м/с - средняя за 10 мин, порывы в срок и между сроками (в фигурных скобках) и направление, откуда дует ветер: С - северный, СВ - северо-восточный, В - восточный, ЮВ - юго-восточный, Ю - южный, ЮЗ - юго-западный, З - западный, СЗ - северо-западный.
Видимость - горизонтальная дальность видимости в метрах или километрах. При видимости от 1 до 10 км при отсутствии осадков обычно наблюдается дымка, при ухудшении видимости до 1 км и менее - туман. В сухую погоду видимость может ухудшаться дымом, пылью или мглою.
Явления - указаны атмосферные явления, наблюдавшиеся в срок или в последний час перед сроком; фигурными скобками обозначены явления, наблюдавшиеся между сроками (за 1-3 часа до срока); квадратными скобками обозначены град или гололедные отложения с указанием их диаметра в мм.
Облачность - указаны через наклонную черту общая и нижняя облачность в баллах и высота нижней границы облаков в метрах; квадратными скобками обозначены формы облаков: Ci - перистые, Cs - перисто-слоистые, Cc - перисто-кучевые, Ac - высококучевые, As - высокослоистые, Sc - слоисто-кучевые, Ns - слоисто-дождевые, Cu - кучевые, Cb - кучево-дождевые. Подробнее классификацию облаков см. в Атласе облаков (PDF).
T - Температура воздуха - температура, измеренная на высоте 2 м над землей.
Td - Температура точки росы - температура, при понижении до которой содержащийся в воздухе водяной пар достигнет насыщения.
f - Относительная влажность воздуха - влажноcть воздуха, измеренная на высоте 2 м над землей.
Te - Эффективная температура - температура, которую ощущает одетый по сезону человек в тени. Характеристика душности погоды. При расчете учитывается влияние влажности воздуха и скорости ветра на теплоощущения человека.
Tes - Эффективная температура на солнце - температура, которую ощущает человек, с поправкой на солнечный нагрев. Характеристика знойности погоды. Зависит от высоты солнца над горизонтом, облачности и скорости ветра. Ночью, в пасмурную погоду, а также при ветре 12 м/с и более поправка равна нулю.
P - Атмосферное давление - приведенное к уровню моря атмосферное давление.
Po - Атмосферное давление - измеренное на уровне метеостанции атмосферное давление.
Tmin - Минимальная температура - минимум температуры воздуха на высоте 2 м над землей.
Tmax - Максимальная температура - максимум температуры воздуха на высоте 2 м над землей.
R - Количество осадков - Количество выпавших осадков за период времени, мм. При наведении курсора мыши на число - период времени, за который выпало указанное количество осадков.
R24 - Количество осадков - Количество выпавших осадков за 24 часа, мм.
S - Снежный покров - Высота снежного покрова, см. При наведении курсора мыши на число - состояние снежного покрова и степень покрытия местности в баллах.